THOR ABLESTAR DEB, 417

Orbit data source: Space-Track

THOR ABLESTAR DEB, 417 is space debris in LEO originally from a launch on Thu, 29 Jun 1961 UTC launched from the Air Force Eastern Test Range (AFETR). Debris objects in space refer to the collection of defunct objects orbiting the Earth. Examples of debris include non-operational satellites, rocket bodies, and fragments generated from explosions, collisions, or faulty payload assembly.

Loading next visibility...
Identifier
417, 1961-015ES
Orbit
LEO
Country
Flag of USUS
Related business
Manufacturer
Unknown
Mission
Spacecraft
Bus & Motor
Unknown
Mass
Unknown
Launch date (UTC)
1961-06-29 (65 years ago)
Launch vehicle
Unknown
Launch site
Air Force Eastern Test Range (AFETR)
Object type
Payload
Rocket body
Debris
Shape & HBR
Unknown shape, 0.1 m
Radar Cross Section
Small (<0.1 m²)

Expand to show TLE details & history
Last TLE update: 20 hours ago

TLE from 20 hours ago
0 THOR ABLESTAR DEB
1 00417U 61015ES  26036.80553832  .00001532  00000-0  73158-3 0  9994
2 00417  66.7440 188.6829 0070751 202.0157 157.7894 14.20567458318836
Epoch: 2026-02-05T19:19Z
TLE epoch observation values (Epoch: 2026-02-05T19:19:58.510Z)
Latitude
-0.00007°
Longitude
122.73659°
Altitude
872.763 km
Speed
7.392 km/s
True Right ascension
12h 34m 43s
True Declination
0° 00' 00"
Sunlit
Object was in full shadow at epoch
Visualization orbit readout
Latitude
Unknown
Longitude
Unknown
Altitude
Unknown
Speed
Unknown
Apparent Right ascension
Unknown
Apparent Declination
Unknown
Sunlit
N/A
Visualization observer readout
Local Sidereal Time
17:21:31
Azimuth
Unknown
Elevation
Unknown
Doppler factor
Unknown
Orbital elements
Apogee altitude
872.752 km
Perigee altitude
770.871 km
Semi-major axis
7,199.948 km
Eccentricity
0.00708
Inclination
66.744°
RAAN
188.6829°
Arg. of periapsis
202.0157°
True anomaly
158.09338°
Mean anomaly
157.7894°
Eccentric anomaly
157.94164°
Mean motion
3.55262 °/min
Orbital period
101.33 mins
BSTAR
0.00073158
Loading maneuver chart data...
Computing Atmospheric mass density...

Documentation

Showing up to 5 results
|